Notices

What's New in latest Release from April 7th, 2021:

- Updated Glossary, including Speed of Maximum Gust, and Total Hourly Precipitation

- Updated national and regional climate services offices contacts and prices information

- Addition of station inventory lists for 1981-2010, 1971-2000, and 1961-1990 Normals.

If you haven't already, please take our survey and provide feedback about our website: https://eccc.sondage-survey.ca/f/LanguageSelection.aspx?s=442ca660-fcf1-47c0-95a9-59707d6fd709

Hourly Data Report for April 16, 2021

KENORA A
ONTARIO
Current Station Operator: NAVCAN

49°47'18.000" N
94°21'47.000" W
409.70 m
6034076
71850
YQK

Download Data

Hourly Data (April 2021)
Hourly Data Report for April 16, 2021
TIME
LST
Temp Definition
°C
Dew Point Definition
°C
Rel Hum Definition
%
Precip. Amount Definition
mm

Wind Dir Definition
10's deg

Wind Spd Definition
km/h
Visibility Definition
km
Stn Press Definition
kPa
Hmdx Definition


Wind Chill Definition


Weather Definition


00:00 2.3 -6.1 54   34 9 24.1 97.32     Mostly Cloudy
01:00 1.9 -6.6 53   34 10 24.1 97.30     LegendNANA
02:00 1.2 -6.3 57   35 9 24.1 97.28     LegendNANA
03:00 0.3 -6.3 61   35 9 24.1 97.25     Mainly Clear
04:00 0.3 -6.2 62   36 10 24.1 97.24     LegendNANA
05:00 0.2 -5.7 64   36 9 24.1 97.24     LegendNANA
06:00 0.2 -5.4 66   36 8 24.1 97.28     Mostly Cloudy
07:00 0.4 -4.4 70   35 9 32.2 97.30     LegendNANA
08:00 0.9 -4.5 67   35 10 32.2 97.30     LegendNANA
09:00 3.4 -4.6 56   34 9 32.2 97.28     Mostly Cloudy
10:00 5.9 -4.6 47   2 8 32.2 97.29     LegendNANA
11:00 7.3 -6.3 37   4 13 32.2 97.25     LegendNANA
12:00 7.7 -8.0 32   10 17 32.2 97.21     Mostly Cloudy
13:00 8.8 -7.3 31   7 12 32.2 97.18     LegendNANA
14:00 8.7 -6.3 34   36 11 32.2 97.13     LegendNANA
15:00 8.6 -4.2 40   31 18 32.2 97.11     Mostly Cloudy
16:00 8.7 -3.8 41   32 14 32.2 97.10     LegendNANA
17:00 8.3 -4.6 40   32 16 32.2 97.10     LegendNANA
18:00 8.0 -4.9 40   33 10 32.2 97.10     Mostly Cloudy
19:00 6.9 -6.2 39   35 7 32.2 97.10     LegendNANA
20:00 6.6 -6.0 40   31 10 24.1 97.12     LegendNANA
21:00 5.5 -6.1 43   35 7 24.1 97.12     Mainly Clear
22:00 3.9 -7.0 45   36 6 24.1 97.10     LegendNANA
23:00 3.8 -8.1 41   36 6 24.1 97.08     LegendNANA

Notes on Data Quality.

Legend

  • E = Estimated
  • M = Missing
  • NA = Not Available*
  • [empty] = Indicates an unobserved value
Date modified: